Date String (YYYY-MM-DD hh:mm:ss) UTC,Instrument flags,Ambient pressure (hPa),Sample flow (lpm),Bypass flow (lpm),Sample temperature (°C),Ambient temperature (°C),ASC tube jacket temperature (°C),LED temperature (°C),Box temperature (°C),Sample RH (%),Span deviation,Mass concentration (μg/m³),Mass concentration (μg/m³),Mass concentration (μg/m³)
DateTimeUTC,F1_M11,P_M11,Q1_M11,Q2_M11,T1_M11,T2_M11,T3_M11,T4_M11,T5_M11,U1_M11,ZSPAN_M11,X0_M11,X2_M11,X1_M11
2022-10-28 00:00:00,,0827.2,5.00,0.00,25.3,23.7,00.0,34.2,27.2,19.0,0000.0,0004.48,0003.15,0002.81
2022-10-28 00:01:00,,0827.2,5.00,0.00,25.3,23.7,00.0,34.2,27.2,19.1,0000.0,0004.32,0003.16,0002.82
2022-10-28 00:02:00,,0827.2,5.00,0.00,25.3,23.6,00.0,34.2,27.1,19.2,0000.0,0004.45,0003.18,0002.81
2022-10-28 00:03:00,,0827.3,5.00,0.00,25.3,23.6,00.0,34.2,27.1,19.0,0000.0,0004.61,0003.18,0002.78
2022-10-28 00:04:00,,0827.2,5.00,0.00,25.3,23.6,00.0,34.1,27.1,18.6,0000.0,0004.62,0003.16,0002.73
2022-10-28 00:05:00,,0827.4,5.01,0.00,25.3,23.6,00.0,34.1,27.1,18.5,0000.0,0004.70,0003.17,0002.69
2022-10-28 00:06:00,,0827.3,5.01,0.00,25.3,23.5,00.0,34.1,27.1,18.4,0000.0,0004.65,0003.15,0002.64
2022-10-28 00:07:00,,0827.4,5.01,0.00,25.3,23.6,00.0,34.1,27.1,18.3,0000.0,0004.67,0003.12,0002.58
2022-10-28 00:08:00,,0827.4,5.01,0.00,25.3,23.6,00.0,34.1,27.1,18.2,0000.0,0004.67,0003.09,0002.53
2022-10-28 00:09:00,,0827.4,5.00,0.00,25.2,23.7,00.0,34.1,27.1,18.0,0000.0,0004.57,0003.02,0002.48
2022-10-28 00:10:00,,0827.4,5.01,0.00,25.2,23.7,00.0,34.1,27.1,17.8,0000.0,0004.41,0002.92,0002.42
2022-10-28 00:11:00,,0827.4,5.00,0.00,25.3,23.8,00.0,34.1,27.1,17.8,0000.0,0004.36,0002.87,0002.35
2022-10-28 00:12:00,,0827.4,5.00,0.00,25.3,23.9,00.0,34.1,27.2,18.0,0000.0,0004.19,0002.75,0002.27
2022-10-28 00:13:00,,0827.5,5.00,0.00,25.3,23.9,00.0,34.1,27.2,18.1,0000.0,0003.97,0002.64,0002.21
2022-10-28 00:14:00,,0827.5,4.99,0.00,25.3,24.0,00.0,34.1,27.2,18.2,0000.0,0003.87,0002.64,0002.20
2022-10-28 00:15:00,,0827.6,5.00,0.00,25.3,24.0,00.0,34.1,27.3,18.1,0000.0,0003.96,0002.69,0002.21
2022-10-28 00:16:00,,0827.5,5.00,0.00,25.4,24.0,00.0,34.1,27.3,18.0,0000.0,0004.03,0002.70,0002.22
2022-10-28 00:17:00,,0827.5,5.00,0.00,25.4,24.1,00.0,34.1,27.3,17.9,0000.0,0004.19,0002.73,0002.22
2022-10-28 00:18:00,,0827.5,5.00,0.00,25.4,24.1,00.0,34.1,27.3,17.9,0000.0,0004.06,0002.70,0002.22
2022-10-28 00:19:00,,0827.5,5.00,0.00,25.4,24.1,00.0,34.1,27.3,17.9,0000.0,0003.94,0002.67,0002.21
2022-10-28 00:20:00,,0827.5,5.00,0.00,25.4,24.1,00.0,34.1,27.3,17.9,0000.0,0003.99,0002.68,0002.21
2022-10-28 00:21:00,,0827.5,5.00,0.00,25.4,24.1,00.0,34.2,27.3,18.0,0000.0,0004.00,0002.67,0002.19
2022-10-28 00:22:00,,0827.6,5.00,0.00,25.4,24.1,00.0,34.2,27.3,18.1,0000.0,0003.92,0002.63,0002.18
2022-10-28 00:23:00,,0827.6,4.99,0.00,25.4,24.1,00.0,34.2,27.3,18.1,0000.0,0004.17,0002.70,0002.18
2022-10-28 00:24:00,,0827.7,5.00,0.00,25.4,24.1,00.0,34.2,27.3,18.0,0000.0,0004.83,0002.74,0002.19
2022-10-28 00:25:00,,0827.7,5.00,0.00,25.4,24.1,00.0,34.2,27.3,18.1,0000.0,0005.57,0002.71,0002.20
2022-10-28 00:26:00,,0827.7,5.01,0.00,25.4,24.1,00.0,34.2,27.3,18.1,0000.0,0005.46,0002.69,0002.20
2022-10-28 00:27:00,,0827.8,5.01,0.00,25.4,24.1,00.0,34.2,27.3,18.1,0000.0,0005.39,0002.67,0002.20
2022-10-28 00:28:00,,0827.7,5.01,0.00,25.4,24.1,00.0,34.2,27.3,18.1,0000.0,0005.16,0002.63,0002.20
2022-10-28 00:29:00,,0827.7,5.00,0.00,25.4,24.0,00.0,34.2,27.3,18.2,0000.0,0005.70,0002.63,0002.21
2022-10-28 00:30:00,,0827.7,4.98,0.00,25.4,24.0,00.0,34.2,27.3,18.2,0000.0,0006.56,0002.66,0002.21
2022-10-28 00:31:00,,0827.7,5.01,0.00,25.5,24.1,00.0,34.2,27.4,18.2,0000.0,0006.90,0002.70,0002.23
2022-10-28 00:32:00,,0827.8,5.01,0.00,25.5,24.1,00.0,34.2,27.4,18.1,0000.0,0006.85,0002.69,0002.24
2022-10-28 00:33:00,,0827.9,5.01,0.00,25.5,24.1,00.0,34.2,27.4,18.1,0000.0,0006.98,0002.75,0002.25
2022-10-28 00:34:00,,0827.9,5.00,0.00,25.5,24.1,00.0,34.2,27.4,18.0,0000.0,0007.07,0002.74,0002.26
2022-10-28 00:35:00,,0828.0,5.00,0.00,25.5,24.1,00.0,34.2,27.4,18.0,0000.0,0007.10,0002.67,0002.26
2022-10-28 00:36:00,,0827.9,5.00,0.00,25.5,24.1,00.0,34.2,27.4,18.0,0000.0,0005.95,0002.65,0002.25
2022-10-28 00:37:00,,0827.9,4.99,0.00,25.5,24.1,00.0,34.2,27.4,18.0,0000.0,0005.92,0002.63,0002.26
2022-10-28 00:38:00,,0828.0,5.00,0.00,25.5,24.1,00.0,34.2,27.3,17.9,0000.0,0005.92,0002.64,0002.26
2022-10-28 00:39:00,,0828.0,5.00,0.00,25.5,24.1,00.0,34.2,27.3,18.0,0000.0,0005.88,0002.63,0002.27
2022-10-28 00:40:00,,0828.0,5.00,0.00,25.5,24.0,00.0,34.2,27.3,18.0,0000.0,0005.75,0002.66,0002.28
2022-10-28 00:41:00,,0828.1,5.01,0.00,25.5,24.0,00.0,34.2,27.4,17.9,0000.0,0004.75,0002.70,0002.30
2022-10-28 00:42:00,,0828.1,5.02,0.00,25.5,24.0,00.0,34.2,27.4,17.8,0000.0,0004.38,0002.69,0002.29
2022-10-28 00:43:00,,0828.1,4.98,0.00,25.5,24.0,00.0,34.2,27.4,17.6,0000.0,0005.08,0002.72,0002.29
2022-10-28 00:44:00,,0828.2,5.02,0.00,25.5,24.0,00.0,34.2,27.4,17.6,0000.0,0005.39,0002.72,0002.31
2022-10-28 00:45:00,,0828.2,4.98,0.00,25.5,24.0,00.0,34.2,27.4,17.7,0000.0,0005.18,0002.69,0002.31
2022-10-28 00:46:00,,0828.2,5.00,0.00,25.5,24.0,00.0,34.2,27.4,17.7,0000.0,0004.84,0002.71,0002.32
2022-10-28 00:47:00,,0828.3,5.02,0.00,25.5,24.0,00.0,34.2,27.4,17.6,0000.0,0004.74,0002.72,0002.33
2022-10-28 00:48:00,,0828.2,4.99,0.00,25.5,24.0,00.0,34.2,27.4,17.8,0000.0,0004.68,0002.71,0002.33
2022-10-28 00:49:00,,0828.3,5.00,0.00,25.5,24.0,00.0,34.2,27.4,17.7,0000.0,0004.73,0002.72,0002.33
2022-10-28 00:50:00,,0828.3,4.99,0.00,25.5,24.0,00.0,34.2,27.3,17.6,0000.0,0005.07,0002.79,0002.32
2022-10-28 00:51:00,,0828.3,5.00,0.00,25.5,24.0,00.0,34.2,27.3,17.6,0000.0,0005.18,0002.83,0002.33
2022-10-28 00:52:00,,0828.3,4.99,0.00,25.5,24.0,00.0,34.2,27.3,17.6,0000.0,0005.13,0002.80,0002.33
2022-10-28 00:53:00,,0828.3,5.01,0.00,25.5,24.0,00.0,34.2,27.3,17.6,0000.0,0005.10,0002.80,0002.35
2022-10-28 00:54:00,,0828.4,5.01,0.00,25.5,24.0,00.0,34.2,27.3,17.7,0000.0,0004.49,0002.77,0002.36
2022-10-28 00:55:00,,0828.4,4.99,0.00,25.5,23.9,00.0,34.3,27.3,17.8,0000.0,0004.08,0002.78,0002.36
2022-10-28 00:56:00,,0828.4,5.02,0.00,25.5,23.9,00.0,34.3,27.3,17.7,0000.0,0004.06,0002.76,0002.35
2022-10-28 00:57:00,,0828.5,5.00,0.00,25.4,23.9,00.0,34.3,27.3,17.7,0000.0,0004.12,0002.78,0002.35
2022-10-28 00:58:00,,0828.5,4.99,0.00,25.4,23.9,00.0,34.2,27.3,17.8,0000.0,0004.12,0002.76,0002.35
2022-10-28 00:59:00,,0828.5,5.00,0.00,25.4,23.9,00.0,34.2,27.3,17.6,0000.0,0004.17,0002.78,0002.34
